Wind_Speed
16 16 16 14 15 14 14 13 12 11 11 12 12 12 13 14 15 16 16 15 14 14 15 17 18 15 13 13 13 13 13 13 13 13 13 13 13 12 12 12 11 11 11 10
15 15 14 15 16 16 15 14 13 13 12 13 14 13 14 15 16 16 16 16 16 17 17 18 18 15 14 14 14 13 14 14 14 14 14 14 13 12 12 12 12 11 11 10
15 14 15 16 16 15 15 15 13 13 11 12 14 14 16 16 16 15 17 18 18 19 18 18 17 16 14 14 14 14 14 15 15 15 14 13 13 13 12 13 13 13 11 10
14 15 15 16 16 16 16 15 15 16 15 15 16 17 16 16 16 17 18 19 18 18 17 17 17 16 15 14 14 14 14 15 15 15 15 14 14 13 12 13 12 13 13 12
14 14 16 16 15 16 16 16 16 17 17 17 17 19 17 17 16 17 18 18 19 19 18 17 16 16 15 15 15 14 13 14 15 15 14 14 13 13 12 12 12 13 12 12
14 15 16 16 16 17 17 17 18 18 19 19 18 19 18 16 16 17 18 19 19 19 18 17 15 15 15 15 15 15 15 14 14 14 14 14 13 12 12 13 13 13 12 12
14 14 15 16 17 17 18 18 18 19 20 19 18 20 17 16 17 17 18 19 19 17 17 16 15 15 15 16 16 16 16 15 15 14 15 14 14 13 13 14 14 13 13 12
14 14 14 15 15 15 17 18 19 19 19 20 20 20 17 16 16 17 17 18 18 19 18 18 17 17 18 17 17 16 16 16 16 15 15 15 15 15 14 14 14 14 13 13
13 14 15 16 15 15 16 17 17 19 19 20 21 21 20 19 17 17 18 18 19 18 18 18 17 18 18 19 18 17 17 17 17 17 16 16 15 15 15 15 14 14 14 14
13 13 14 16 16 16 16 16 17 18 20 21 21 21 19 19 19 19 19 18 18 19 19 19 19 19 19 19 19 19 20 19 18 18 18 18 17 17 16 15 14 14 14 15
15 15 14 16 17 15 16 16 18 19 20 21 21 20 19 20 21 21 20 20 20 20 19 19 19 19 19 20 20 20 20 19 19 18 19 18 18 17 17 17 16 16 16 16
17 17 17 18 17 17 18 18 19 21 22 22 23 22 20 20 20 22 22 22 22 22 21 20 19 19 20 21 21 20 20 20 19 19 19 19 18 18 18 18 17 17 17 17
19 19 19 19 19 19 19 19 19 21 22 22 23 23 22 21 22 23 23 23 22 22 22 21 21 20 20 22 21 20 21 20 20 20 20 20 19 19 19 18 18 18 18 18
21 21 22 21 20 21 22 21 21 21 22 23 23 23 23 23 23 23 23 23 23 23 23 22 22 20 21 22 21 21 21 21 20 20 20 20 19 20 19 19 18 18 18 19
23 23 23 22 22 23 23 22 22 23 22 23 23 23 22 23 24 23 23 23 24 23 22 22 21 21 21 21 21 22 22 22 21 21 20 20 20 21 20 20 20 20 19 19
23 23 23 23 23 24 24 23 23 24 24 24 25 24 23 23 23 23 22 22 23 23 23 23 21 21 21 21 21 22 22 22 22 21 21 21 21 21 21 21 21 21 20 20
23 23 24 24 24 25 24 23 24 25 24 25 25 24 23 24 23 23 23 23 24 24 23 22 22 22 22 22 22 22 22 22 22 22 21 21 21 21 21 21 22 22 22 21
23 24 25 25 25 26 22 22 23 24 25 26 26 25 25 24 24 24 24 24 24 23 22 22 22 22 22 22 23 23 22 22 21 21 21 21 22 22 22 22 22 22 21 21
24 24 25 26 26 24 23 23 24 25 25 25 26 26 26 26 25 25 25 25 25 24 23 22 22 22 22 22 22 22 22 22 22 21 21 21 22 22 22 22 21 22 21 21
25 25 25 25 26 25 23 24 24 25 26 25 26 26 27 27 27 26 26 26 25 23 23 23 23 22 22 21 21 22 22 21 21 21 21 21 21 21 22 22 21 21 21 21
24 25 25 26 26 26 24 24 25 26 26 26 26 26 26 27 27 26 26 26 25 25 24 24 24 24 22 22 22 21 21 20 20 20 20 20 21 21 21 21 21 21 22 22
24 25 26 26 27 26 25 26 26 26 27 27 26 26 26 26 26 27 27 26 25 25 24 24 24 24 23 22 21 21 21 21 21 20 20 20 20 21 22 22 22 22 22 22
24 25 25 26 26 25 25 25 26 27 27 26 26 26 26 26 27 27 26 25 25 24 24 23 24 23 22 21 21 21 21 21 21 20 20 21 21 21 21 21 21 21 21 21
24 25 25 25 25 25 24 25 25 25 25 25 25 25 25 26 26 26 25 25 24 24 22 22 23 22 21 21 21 21 21 21 21 20 20 21 21 21 21 21 21 21 21 22
23 23 24 25 25 25 24 24 24 24 24 24 25 25 25 25 24 24 24 24 24 23 22 21 21 21 21 21 21 20 20 20 20 20 20 19 19 20 21 21 21 22 22 22
21 23 25 25 25 25 24 25 24 25 25 25 25 24 24 23 23 23 23 23 22 21 20 20 20 20 20 20 20 20 20 20 20 20 20 19 19 19 20 21 21 21 22 22
Wind_Direction
222 221 217 220 222 222 225 229 233 233 241 255 262 269 278 286 289 291 294 297 300 301 303 305 305 307 304 304 306 307 310 309 312 312 311 305 302 302 303 305 301 297 298 298
219 218 216 218 220 222 227 230 230 228 242 256 259 261 267 272 279 283 291 296 298 297 299 300 300 301 303 302 301 302 304 305 306 308 310 305 299 297 297 295 295 293 297 296
217 214 215 216 218 224 227 233 235 236 247 257 262 263 268 268 275 282 286 293 296 299 299 301 303 307 305 301 300 301 298 302 303 304 306 305 301 296 293 294 294 295 294 291
216 214 218 220 222 226 230 233 240 241 246 250 257 262 264 269 273 280 286 291 299 302 301 301 302 301 304 300 296 295 295 298 301 303 302 301 299 292 290 291 291 292 290 288
219 220 223 224 223 227 230 235 241 244 245 248 255 261 262 267 271 280 287 292 298 302 299 296 298 299 296 295 294 291 293 295 297 299 299 298 296 292 291 289 289 289 285 284
226 228 229 228 225 229 233 237 242 245 247 249 254 262 264 264 267 276 285 291 295 298 299 297 296 294 293 294 295 296 295 295 295 296 295 295 292 293 293 288 285 284 280 276
228 229 231 232 230 230 236 240 243 245 248 250 257 262 263 263 267 275 283 288 290 294 298 294 290 289 288 290 294 296 296 295 293 292 293 292 292 290 290 289 284 280 278 276
230 226 226 231 233 234 239 243 247 251 251 254 258 263 268 268 273 279 282 285 287 292 294 295 293 294 292 290 291 292 294 293 290 289 291 291 292 289 285 286 283 279 274 274
233 230 227 230 231 236 238 243 250 255 256 259 260 265 269 270 271 276 282 285 286 292 294 294 295 295 296 295 293 293 294 292 287 285 286 286 286 286 285 284 281 278 278 274
240 240 234 233 234 236 242 246 251 255 260 265 264 267 270 269 271 279 282 288 293 295 294 292 293 295 295 296 295 291 292 290 285 281 280 280 280 281 284 281 279 276 275 274
243 245 241 242 244 243 242 248 254 259 263 266 269 271 276 276 275 280 286 289 292 294 293 291 292 293 294 294 294 294 292 290 285 282 278 277 278 279 280 280 278 275 273 273
247 249 247 245 248 249 249 252 256 260 265 267 271 273 275 279 281 282 287 288 290 290 290 291 290 292 294 294 292 292 291 288 285 284 280 277 277 278 279 278 275 276 276 275
249 250 249 245 244 248 250 255 260 263 264 265 269 274 278 280 283 287 289 288 287 286 285 285 286 291 292 295 293 291 290 290 288 285 282 281 279 277 278 276 275 276 276 276
250 251 249 247 246 248 250 253 256 260 263 266 269 273 277 280 283 286 288 289 287 287 286 286 286 287 289 290 291 291 290 289 289 285 282 281 279 278 277 276 276 276 276 275
253 254 253 250 249 252 254 255 255 257 263 267 272 274 274 278 280 283 286 287 286 286 286 290 289 288 287 288 288 287 289 288 287 285 283 281 279 277 275 274 275 275 275 273
254 254 256 254 251 253 255 255 256 258 263 268 272 273 274 276 278 280 283 286 287 283 284 287 287 288 287 287 288 287 287 286 285 284 282 281 278 275 272 271 271 271 271 271
256 258 258 255 253 255 254 255 257 259 262 267 272 275 276 276 278 281 284 286 286 284 282 283 284 285 285 286 289 289 286 285 283 281 280 280 277 275 273 271 270 270 269 268
257 260 260 259 258 256 255 256 259 263 264 267 272 274 276 279 279 281 282 285 287 288 285 284 285 283 285 286 287 288 286 285 283 281 279 278 276 275 272 271 270 269 267 268
257 258 261 260 260 260 257 257 260 263 267 270 271 273 274 277 279 280 280 282 285 284 282 282 284 285 286 285 284 285 286 286 283 280 279 277 274 274 273 272 271 268 265 266
259 259 261 263 263 264 260 259 262 265 267 269 271 271 271 274 278 280 282 282 282 280 279 279 279 281 283 285 285 286 286 285 283 281 279 277 276 275 274 274 275 271 266 266
262 263 264 265 266 266 262 262 264 265 268 269 272 273 273 275 277 280 282 282 282 279 279 277 277 278 281 283 284 285 284 283 282 281 279 277 276 276 277 276 275 273 270 268
263 265 266 267 268 267 265 265 267 268 268 270 272 273 274 276 277 279 281 282 281 282 280 277 276 277 279 282 285 283 283 282 281 280 279 278 277 277 277 276 275 272 271 270
265 266 267 267 270 270 267 266 268 268 268 271 271 274 274 274 276 278 281 281 280 282 280 279 278 278 279 281 283 282 281 281 281 281 280 280 280 278 276 275 274 275 274 273
268 268 267 267 268 271 268 269 269 267 268 269 270 272 272 273 274 276 278 279 280 279 278 278 278 279 280 282 282 284 282 279 280 280 280 281 280 279 277 276 276 276 276 275
269 270 268 267 269 269 270 271 269 268 270 269 269 272 272 274 274 273 275 276 276 275 274 276 278 279 281 282 282 283 283 282 281 282 281 280 281 280 279 277 277 277 277 276
269 270 269 269 270 269 271 270 269 268 268 269 271 272 271 274 275 273 272 273 274 276 277 278 277 279 281 282 283 283 282 284 286 285 281 280 282 284 282 279 279 279 279 277
Height
5871 5873 5875 5877 5879 5880 5881 5882 5883 5884 5885 5885 5885 5886 5886 5885 5884 5883 5883 5882 5881 5880 5878 5877 5875 5873 5873 5872 5870 5869 5868 5866 5865 5864 5863 5861 5860 5859 5857 5857 5856 5856 5855 5854
5868 5870 5873 5874 5875 5876 5878 5879 5880 5881 5881 5881 5882 5882 5882 5882 5881 5880 5879 5879 5879 5877 5875 5874 5872 5870 5869 5868 5867 5866 5865 5864 5863 5861 5860 5858 5857 5856 5855 5854 5853 5853 5853 5852
5864 5868 5869 5870 5871 5873 5875 5876 5877 5877 5877 5878 5878 5878 5878 5878 5878 5877 5876 5875 5875 5873 5871 5870 5869 5867 5866 5865 5864 5863 5862 5861 5860 5858 5856 5855 5854 5853 5852 5850 5850 5849 5849 5849
5861 5863 5865 5866 5868 5870 5871 5873 5873 5874 5874 5874 5875 5875 5874 5874 5874 5874 5873 5872 5871 5869 5867 5867 5866 5865 5863 5862 5861 5860 5859 5858 5856 5855 5853 5851 5850 5850 5849 5847 5847 5846 5845 5845
5858 5860 5861 5863 5865 5866 5868 5869 5870 5870 5870 5871 5871 5870 5871 5870 5870 5870 5869 5869 5868 5866 5864 5863 5862 5861 5860 5859 5857 5856 5855 5854 5853 5851 5849 5848 5847 5846 5845 5844 5844 5843 5842 5842
5856 5857 5858 5860 5861 5862 5864 5865 5866 5866 5866 5867 5867 5866 5866 5866 5866 5866 5865 5864 5863 5862 5859 5857 5857 5857 5856 5855 5853 5852 5850 5849 5848 5847 5846 5844 5843 5842 5841 5841 5840 5840 5839 5839
5852 5854 5855 5856 5857 5859 5860 5861 5862 5862 5862 5862 5863 5861 5863 5862 5862 5861 5861 5859 5858 5857 5856 5853 5853 5852 5852 5850 5849 5848 5846 5845 5844 5843 5841 5839 5839 5838 5837 5837 5836 5836 5835 5835
5848 5850 5852 5853 5854 5855 5856 5857 5858 5858 5858 5858 5858 5857 5858 5858 5857 5856 5856 5855 5854 5853 5852 5851 5850 5849 5847 5845 5844 5843 5842 5841 5840 5839 5837 5836 5835 5834 5833 5832 5832 5831 5831 5831
5844 5847 5848 5849 5850 5851 5852 5852 5853 5854 5854 5854 5853 5853 5853 5852 5852 5852 5851 5850 5849 5848 5847 5847 5845 5844 5843 5841 5840 5838 5837 5836 5835 5834 5833 5832 5831 5830 5829 5828 5828 5827 5827 5827
5841 5843 5845 5845 5846 5847 5848 5849 5849 5849 5849 5848 5849 5849 5849 5848 5848 5847 5847 5846 5845 5844 5843 5842 5841 5840 5838 5837 5835 5833 5832 5830 5829 5829 5828 5827 5826 5826 5825 5824 5823 5823 5822 5822
5837 5839 5841 5842 5842 5843 5844 5845 5844 5845 5844 5844 5843 5846 5845 5844 5843 5842 5842 5842 5841 5840 5839 5837 5836 5834 5833 5832 5830 5828 5826 5824 5823 5823 5823 5822 5821 5820 5820 5819 5818 5818 5817 5817
5833 5834 5836 5837 5838 5839 5839 5839 5840 5840 5840 5839 5839 5842 5840 5839 5838 5837 5837 5836 5836 5834 5834 5832 5831 5829 5828 5826 5824 5823 5821 5819 5818 5817 5817 5816 5816 5815 5815 5814 5813 5813 5812 5812
5829 5830 5831 5833 5836 5835 5834 5835 5835 5835 5835 5834 5834 5837 5834 5834 5833 5832 5832 5831 5830 5829 5828 5827 5825 5824 5822 5820 5819 5817 5816 5814 5812 5812 5811 5810 5810 5809 5809 5808 5808 5808 5807 5807
5824 5824 5826 5828 5828 5828 5828 5829 5829 5829 5829 5829 5829 5829 5829 5828 5827 5827 5826 5825 5824 5823 5822 5820 5819 5818 5817 5815 5813 5811 5810 5808 5807 5806 5805 5805 5804 5804 5804 5803 5803 5802 5802 5801
5818 5819 5820 5821 5822 5822 5823 5823 5824 5824 5823 5823 5823 5823 5823 5822 5821 5820 5820 5819 5817 5816 5815 5814 5813 5812 5810 5809 5807 5806 5804 5802 5801 5800 5800 5799 5799 5798 5798 5797 5797 5796 5796 5796
5812 5813 5814 5815 5816 5816 5817 5818 5818 5818 5818 5817 5817 5817 5817 5816 5815 5814 5813 5812 5811 5810 5809 5808 5806 5805 5804 5802 5801 5799 5798 5796 5795 5794 5794 5793 5793 5792 5791 5791 5791 5790 5790 5790
5806 5807 5808 5809 5810 5810 5811 5812 5812 5812 5811 5811 5811 5812 5810 5810 5809 5808 5807 5806 5805 5803 5802 5801 5800 5798 5797 5796 5794 5793 5791 5790 5789 5788 5787 5787 5786 5786 5785 5785 5784 5784 5784 5783
5800 5800 5801 5801 5803 5803 5807 5806 5805 5805 5804 5804 5804 5804 5804 5803 5802 5802 5801 5800 5798 5796 5795 5794 5793 5791 5790 5789 5788 5786 5785 5784 5783 5782 5781 5780 5779 5779 5778 5778 5777 5777 5777 5777
5793 5794 5794 5795 5795 5796 5799 5799 5799 5798 5798 5798 5797 5797 5797 5796 5795 5794 5793 5793 5792 5791 5789 5788 5787 5785 5784 5783 5781 5780 5779 5778 5777 5776 5775 5774 5773 5773 5772 5771 5771 5770 5770 5771
5786 5787 5788 5787 5787 5788 5792 5792 5791 5792 5791 5791 5790 5790 5790 5789 5788 5788 5786 5785 5785 5784 5783 5782 5781 5779 5778 5777 5775 5774 5772 5771 5770 5769 5768 5768 5767 5766 5766 5765 5764 5763 5763 5764
5779 5779 5780 5780 5780 5781 5783 5783 5784 5785 5785 5784 5783 5782 5782 5781 5781 5780 5779 5778 5777 5776 5775 5775 5774 5772 5771 5770 5769 5767 5766 5765 5764 5763 5762 5761 5760 5760 5759 5759 5758 5758 5758 5758
5772 5772 5773 5773 5773 5776 5776 5776 5776 5776 5776 5775 5775 5775 5775 5774 5773 5772 5771 5771 5769 5768 5767 5767 5766 5766 5765 5764 5762 5761 5760 5759 5758 5757 5755 5755 5754 5753 5753 5752 5752 5752 5751 5751
5765 5766 5766 5767 5768 5767 5767 5768 5768 5767 5768 5767 5767 5767 5767 5766 5765 5764 5764 5763 5762 5762 5760 5759 5759 5759 5758 5757 5756 5755 5754 5753 5752 5750 5749 5748 5747 5747 5746 5745 5745 5745 5745 5745
5758 5758 5759 5759 5759 5758 5759 5759 5759 5759 5759 5759 5759 5759 5759 5759 5758 5757 5757 5756 5755 5755 5753 5752 5752 5752 5751 5750 5749 5749 5748 5746 5745 5744 5743 5742 5741 5740 5740 5739 5738 5738 5738 5737
5751 5752 5751 5751 5751 5751 5751 5751 5751 5751 5751 5752 5752 5751 5751 5751 5750 5750 5750 5749 5748 5747 5746 5746 5745 5745 5744 5743 5743 5742 5741 5740 5739 5738 5737 5736 5735 5734 5733 5733 5732 5731 5731 5730
5745 5745 5744 5744 5744 5743 5743 5742 5743 5743 5744 5744 5744 5743 5743 5743 5743 5743 5743 5742 5742 5741 5740 5739 5739 5739 5738 5737 5736 5736 5735 5734 5733 5732 5731 5730 5729 5728 5727 5726 5726 5724 5724 5723